1485219600.24,41069,9.38,73374.0,-8.33,-41.17,-41.49,0,*59
1485219601.45,41070,9.38,73376.0,-8.33,-41.17,-41.49,0,*51
1485219602.65,41071,9.38,73372.5,-8.33,-41.29,-41.49,0,*5D
1485219603.85,41072,9.38,73374.0,-8.33,-41.29,-41.49,0,*5E
1485219605.11,41073,9.38,73378.3,-8.33,-41.35,-41.55,0,*5F
1485219606.35,41074,9.38,73378.5,-8.29,-41.29,-41.35,0,*58
1485219607.56,41075,9.38,73378.8,-8.33,-41.29,-41.29,0,*5F
1485219608.79,41076,9.38,73378.0,-8.29,-41.17,-41.35,0,*57
1485219610.0,41077,9.38,73378.0,-8.29,-41.29,-41.49,0,*50
1485219611.2,41078,9.38,73374.3,-8.29,-41.29,-41.49,0,*5F
1485219612.44,41079,9.38,73372.3,-8.33,-41.17,-41.35,0,*53
1485219613.7,41080,9.38,73378.5,-8.33,-41.35,-41.55,0,*53
1485219614.93,41081,9.38,73376.0,-8.33,-41.35,-41.49,0,*5F
1485219616.2,41082,9.38,73376.5,-8.33,-41.35,-41.55,0,*51
1485219617.43,41083,9.44,73376.5,-8.33,-41.29,-41.55,0,*5D
1485219618.67,41084,9.38,73374.3,-8.29,-41.35,-41.49,0,*51
1485219619.87,41085,9.38,73374.5,-8.33,-41.17,-41.49,0,*5B
1485219621.14,41086,9.38,73378.0,-8.33,-41.35,-41.55,0,*55
1485219622.37,41087,9.38,73378.0,-8.29,-41.49,-41.81,0,*5D
1485219623.61,41088,9.38,73374.5,-8.33,-41.49,-41.67,0,*51
1485219624.85,41089,9.44,73378.3,-8.29,-41.49,-41.67,0,*5B
1485219626.09,41090,9.38,73372.0,-8.29,-41.49,-41.55,0,*52
1485219627.32,41091,9.38,73376.5,-8.29,-41.35,-41.49,0,*55
1485219628.58,41092,9.38,73376.3,-8.33,-41.35,-41.81,0,*59
1485219629.81,41093,9.38,73370.3,-8.33,-41.49,-41.81,0,*53
1485219631.07,41094,9.38,73372.3,-8.29,-41.55,-41.93,0,*51
1485219632.33,41095,9.38,73374.3,-8.29,-41.55,-41.81,0,*53
1485219633.6,41096,9.38,73376.3,-8.33,-41.35,-41.67,0,*55
1485219634.86,41097,9.38,73372.8,-8.33,-41.35,-41.55,0,*55
1485219636.1,41098,9.38,73374.5,-8.33,-41.49,-41.55,0,*51
1485219637.33,41099,9.38,73374.8,-8.29,-41.35,-41.49,0,*5D
1485219638.6,41100,9.38,73372.5,-8.33,-41.35,-41.67,0,*5B
1485219639.84,41101,9.38,73376.8,-8.29,-41.49,-41.67,0,*5A
1485219641.1,41102,9.38,73374.3,-8.33,-41.35,-41.81,0,*51
1485219642.36,41103,9.38,73376.0,-8.33,-41.55,-41.81,0,*56
1485219643.6,41104,9.38,73374.5,-8.33,-41.49,-41.67,0,*54
1485219644.86,41105,9.38,73374.0,-8.33,-41.35,-41.55,0,*5F
1485219646.1,41106,9.38,73376.0,-8.33,-41.49,-41.67,0,*56
1485219647.3,41107,9.38,73374.8,-8.33,-41.29,-41.49,0,*5D
1485219648.56,41108,9.38,73372.3,-8.33,-41.35,-41.55,0,*52
1485219649.8,41109,9.38,73374.3,-8.33,-41.49,-41.55,0,*58
1485219651.07,41110,9.38,73374.3,-8.33,-41.35,-41.67,0,*5A
1485219652.3,41111,9.38,73374.8,-8.33,-41.49,-41.67,0,*50
1485219653.57,41112,9.38,73370.8,-8.33,-41.35,-41.55,0,*59
1485219654.83,41113,9.38,73378.0,-8.33,-41.35,-41.35,0,*5E
1485219656.1,41114,9.38,73376.8,-8.33,-41.35,-41.55,0,*5F
1485219657.34,41115,9.44,73378.8,-8.33,-41.49,-41.67,0,*54
1485219658.6,41116,9.38,73372.0,-8.33,-41.35,-41.55,0,*5D
1485219659.87,41117,9.38,73372.5,-8.33,-41.35,-41.67,0,*5D
1485219661.14,41118,9.38,73374.5,-8.33,-41.35,-41.67,0,*52
1485219662.4,41119,9.38,73374.0,-8.33,-41.35,-41.55,0,*52
1485219663.64,41120,9.38,73374.3,-8.33,-41.49,-41.67,0,*52
1485219664.91,41121,9.38,73378.0,-8.33,-41.35,-41.35,0,*5F
1485219666.14,41122,9.38,73372.8,-8.33,-41.35,-41.49,0,*57
1485219667.38,41123,9.38,73374.8,-8.33,-41.49,-41.67,0,*51
1485219668.61,41124,9.38,73370.5,-8.35,-41.41,-41.73,0,*5D
1485219669.87,41125,9.38,73372.8,-8.35,-41.55,-41.73,0,*59
1485219671.11,41126,9.38,73376.0,-8.33,-41.35,-41.49,0,*53
1485219672.37,41127,9.38,73374.5,-8.33,-41.35,-41.55,0,*5F
1485219673.57,41128,9.38,73374.0,-8.33,-41.29,-41.49,0,*50
1485219674.81,41129,9.38,73376.8,-8.33,-41.35,-41.49,0,*5C
1485219676.04,41130,9.44,73376.8,-8.37,-41.55,-41.61,0,*5C
1485219677.3,41131,9.38,73374.3,-8.35,-41.55,-41.73,0,*5C
1485219678.54,41132,9.38,73372.0,-8.35,-41.41,-41.73,0,*5A
1485219679.77,41133,9.38,73376.0,-8.35,-41.61,-41.87,0,*52
1485219681.01,41134,9.38,73374.8,-8.37,-41.55,-41.73,0,*5B
1485219682.27,41135,9.38,73374.8,-8.35,-41.55,-41.73,0,*58
1485219683.56,41136,9.44,73376.0,-8.35,-41.35,-41.55,0,*59
1485219684.79,41137,9.38,73374.3,-8.33,-41.29,-41.55,0,*53
1485219686.06,41138,9.38,73372.5,-8.35,-41.41,-41.55,0,*54
1485219687.29,41139,9.38,73374.0,-8.35,-41.41,-41.61,0,*52
1485219688.53,41140,9.38,73374.3,-8.35,-41.41,-41.87,0,*54
1485219689.76,41141,9.38,73374.5,-8.37,-41.55,-41.73,0,*59
1485219691.02,41142,9.38,73374.3,-8.35,-41.55,-41.87,0,*53
1485219692.28,41143,9.38,73372.3,-8.35,-41.55,-41.61,0,*5A
1485219693.54,41144,9.38,73374.3,-8.35,-41.55,-41.87,0,*55
1485219694.75,41145,9.38,73372.3,-8.37,-41.41,-41.73,0,*58
1485219695.99,41146,9.38,73370.8,-8.37,-41.55,-41.87,0,*55
1485219697.25,41147,9.38,73374.5,-8.35,-41.55,-41.87,0,*56
1485219698.51,41148,9.38,73372.3,-8.35,-41.55,-41.73,0,*52
1485219699.75,41149,9.38,73370.3,-8.35,-41.73,-41.87,0,*5C
1485219700.98,41150,9.38,73372.8,-8.35,-41.61,-41.87,0,*57
1485219702.19,41151,9.38,73372.0,-8.37,-41.41,-41.73,0,*5D
1485219703.4,41152,9.38,73374.5,-8.37,-41.41,-41.73,0,*5E
1485219704.64,41153,9.38,73372.0,-8.35,-41.41,-41.61,0,*5E
1485219705.87,41154,9.38,73372.5,-8.35,-41.41,-41.61,0,*59
1485219707.13,41155,9.38,73374.3,-8.35,-41.35,-41.61,0,*5B
1485219708.39,41156,9.38,73372.8,-8.35,-41.35,-41.61,0,*58
1485219709.63,41157,9.38,73376.8,-8.37,-41.35,-41.61,0,*5B
1485219710.86,41158,9.38,73370.5,-8.37,-41.35,-41.73,0,*57
1485219712.1,41159,9.38,73374.5,-8.35,-41.41,-41.73,0,*57
1485219713.31,41160,9.38,73374.5,-8.37,-41.41,-41.61,0,*5C
1485219714.57,41161,9.38,73374.8,-8.35,-41.55,-41.87,0,*52
1485219715.83,41162,9.38,73372.5,-8.35,-41.41,-41.55,0,*5B
1485219717.04,41163,9.38,73374.5,-8.37,-41.41,-41.61,0,*5F
1485219718.25,41164,9.38,73374.5,-8.37,-41.41,-41.61,0,*58
1485219719.48,41165,9.38,73370.5,-8.35,-41.41,-41.61,0,*5B
1485219720.69,41166,9.38,73374.8,-8.37,-41.41,-41.61,0,*5A
1485219721.9,41167,9.38,73372.8,-8.37,-41.41,-41.61,0,*5B
1485219723.11,41168,9.38,73370.8,-8.37,-41.41,-41.73,0,*57
1485219724.31,41169,9.38,73374.0,-8.37,-41.41,-41.61,0,*55
1485219725.54,41170,9.38,73374.8,-8.37,-41.55,-41.61,0,*58
1485219726.75,41171,9.38,73372.3,-8.37,-41.41,-41.61,0,*5C
1485219727.99,41172,9.38,73374.5,-8.37,-41.41,-41.55,0,*58
1485219729.25,41173,9.38,73368.8,-8.35,-41.35,-41.61,0,*5F
1485219730.48,41174,9.38,73372.8,-8.37,-41.35,-41.61,0,*5A
1485219731.72,41175,9.38,73374.3,-8.37,-41.55,-41.61,0,*5D
1485219732.95,41176,9.38,73370.8,-8.35,-41.41,-41.73,0,*5A
1485219734.19,41177,9.38,73374.0,-8.37,-41.55,-41.87,0,*57
1485219735.42,41178,9.38,73372.8,-8.37,-41.55,-41.73,0,*53
1485219736.63,41179,9.38,73374.8,-8.37,-41.41,-41.73,0,*57
1485219737.87,41180,9.38,73370.0,-8.37,-41.35,-41.61,0,*51
1485219739.07,41181,9.38,73374.8,-8.37,-41.41,-41.61,0,*53
1485219740.34,41182,9.38,73374.5,-8.37,-41.35,-41.55,0,*54
1485219741.55,41183,9.38,73374.0,-8.37,-41.41,-41.61,0,*51
1485219742.75,41184,9.38,73370.3,-8.37,-41.41,-41.61,0,*56
1485219743.97,41185,9.38,73374.3,-8.37,-41.41,-41.73,0,*54
1485219745.17,41186,9.38,73374.3,-8.37,-41.41,-41.61,0,*54
1485219746.38,41187,9.38,73370.8,-8.37,-41.41,-41.61,0,*55
1485219747.59,41188,9.38,73374.3,-8.37,-41.41,-41.61,0,*5A
1485219748.82,41189,9.38,73374.0,-8.37,-41.41,-41.55,0,*5C
1485219750.09,41190,9.38,73370.5,-8.37,-41.35,-41.55,0,*57
1485219751.3,41191,9.38,73374.8,-8.37,-41.41,-41.73,0,*51
1485219752.56,41192,9.38,73372.5,-8.39,-41.61,-41.67,0,*5B
1485219753.8,41193,9.38,73372.8,-8.39,-41.41,-41.61,0,*5E
1485219755.06,41194,9.38,73370.8,-8.39,-41.41,-41.67,0,*5F
1485219756.29,41195,9.38,73374.8,-8.39,-41.41,-41.61,0,*58
1485219757.52,41196,9.38,73374.0,-8.39,-41.41,-41.61,0,*5B
1485219758.75,41197,9.38,73370.8,-8.39,-41.41,-41.61,0,*5A
1485219759.98,41198,9.38,73374.3,-8.39,-41.29,-41.49,0,*51
1485219761.2,41199,9.38,73374.3,-8.39,-41.29,-41.49,0,*50
1485219762.44,41200,9.38,73376.5,-8.37,-41.35,-41.61,0,*5A
1485219763.67,41201,9.38,73374.0,-8.37,-41.35,-41.41,0,*59
1485219764.91,41202,9.38,73372.3,-8.37,-41.35,-41.61,0,*58
1485219766.12,41203,9.38,73372.5,-8.37,-41.41,-41.61,0,*5A
1485219767.32,41204,9.38,73374.5,-8.37,-41.41,-41.61,0,*5D
1485219768.53,41205,9.38,73374.3,-8.37,-41.41,-41.61,0,*5C
1485219769.76,41206,9.38,73370.3,-8.37,-41.55,-41.61,0,*5A
1485219771.0,41207,9.38,73372.5,-8.37,-41.41,-41.55,0,*59
1485219772.24,41208,9.38,73372.0,-8.37,-41.35,-41.41,0,*50
1485219773.48,41209,9.38,73372.3,-8.37,-41.23,-41.41,0,*56
1485219774.72,41210,9.38,73378.0,-8.37,-41.35,-41.41,0,*59
1485219775.96,41211,9.38,73374.5,-8.37,-41.35,-41.41,0,*58
1485219777.19,41212,9.38,73370.0,-8.37,-41.41,-41.55,0,*5D
1485219778.46,41213,9.38,73372.8,-8.37,-41.35,-41.55,0,*5F
1485219779.69,41214,9.38,73372.8,-8.37,-41.35,-41.61,0,*5F
1485219780.93,41215,9.38,73372.8,-8.37,-41.23,-41.61,0,*59
1485219782.19,41216,9.38,73374.0,-8.37,-41.35,-41.55,0,*5A
1485219783.46,41217,9.38,73372.0,-8.37,-41.35,-41.55,0,*5B
1485219784.69,41218,9.38,73374.3,-8.39,-41.11,-41.41,0,*59
1485219785.92,41219,9.38,73374.5,-8.39,-41.11,-41.41,0,*58
1485219787.12,41220,9.38,73372.3,-8.37,-41.29,-41.41,0,*57
1485219788.35,41221,9.38,73368.5,-8.39,-41.29,-41.49,0,*50
1485219789.59,41222,9.38,73374.3,-8.37,-41.23,-41.41,0,*5F
1485219790.83,41223,9.38,73374.0,-8.37,-41.35,-41.41,0,*59
1485219792.04,41224,9.38,73374.3,-8.37,-41.17,-41.41,0,*5E
1485219793.27,41225,9.38,73372.3,-8.37,-41.23,-41.41,0,*58
1485219794.54,41226,9.38,73370.3,-8.37,-41.23,-41.35,0,*58
1485219795.75,41227,9.38,73370.0,-8.37,-41.17,-41.17,0,*5E
1485219797.01,41228,9.38,73374.3,-8.37,-41.35,-41.55,0,*57
1485219798.24,41229,9.38,73374.8,-8.35,-41.41,-41.61,0,*50
1485219799.51,41230,9.38,73374.3,-8.35,-41.35,-41.61,0,*5B
1485219800.77,41231,9.38,73372.3,-8.37,-41.35,-41.55,0,*5F
1485219802.04,41232,9.38,73370.8,-8.37,-41.35,-41.55,0,*5C
1485219803.27,41233,9.38,73370.5,-8.37,-41.35,-41.41,0,*58
1485219804.51,41234,9.38,73372.0,-8.37,-41.23,-41.61,0,*5A
1485219805.77,41235,9.38,73372.3,-8.37,-41.35,-41.55,0,*5B
1485219807.04,41236,9.38,73372.0,-8.37,-41.35,-41.55,0,*58
1485219808.3,41237,9.38,73374.8,-8.37,-41.35,-41.55,0,*59
1485219809.54,41238,9.38,73374.0,-8.37,-41.17,-41.35,0,*50
1485219810.8,41239,9.38,73374.5,-8.37,-41.35,-41.55,0,*57
1485219812.07,41240,9.38,73374.0,-8.37,-41.35,-41.55,0,*59
1485219813.29,41241,9.38,73374.8,-8.39,-41.29,-41.49,0,*56
1485219814.5,41242,9.38,73374.3,-8.37,-41.41,-41.61,0,*5F
1485219815.76,41243,9.38,73372.3,-8.35,-41.41,-41.55,0,*5B
1485219816.99,41244,9.38,73372.3,-8.39,-41.41,-41.61,0,*57
1485219818.22,41245,9.38,73372.5,-8.39,-41.29,-41.49,0,*52
1485219819.48,41246,9.38,73374.0,-8.37,-41.23,-41.35,0,*5E
1485219820.69,41247,9.38,73374.3,-8.37,-41.41,-41.61,0,*5A
1485219821.93,41248,9.38,73372.0,-8.37,-41.35,-41.61,0,*56
1485219823.19,41249,9.38,73372.8,-8.37,-41.35,-41.55,0,*50
1485219824.45,41250,9.38,73370.5,-8.37,-41.23,-41.35,0,*59
1485219825.72,41251,9.38,73374.5,-8.39,-41.23,-41.29,0,*5B
1485219826.98,41252,9.38,73372.3,-8.39,-41.23,-41.41,0,*56
1485219828.22,41253,9.38,73372.3,-8.37,-41.23,-41.41,0,*59
1485219829.48,41254,9.38,73374.3,-8.37,-41.23,-41.35,0,*5D
1485219830.74,41255,9.38,73372.3,-8.35,-41.17,-41.23,0,*5E
1485219832.01,41256,9.38,73372.3,-8.35,-41.03,-41.35,0,*5F
1485219833.24,41257,9.38,73368.8,-8.37,-41.17,-41.23,0,*5E
1485219834.48,41258,9.38,73372.3,-8.37,-41.23,-41.41,0,*52
1485219835.72,41259,9.38,73372.8,-8.37,-41.23,-41.41,0,*53
1485219836.96,41260,9.38,73372.5,-8.37,-40.85,-41.17,0,*57
1485219838.22,41261,9.38,73372.8,-8.35,-41.17,-41.23,0,*59
1485219839.45,41262,9.38,73368.8,-8.37,-41.17,-41.35,0,*5F
1485219840.71,41263,9.38,73368.8,-8.35,-41.17,-41.23,0,*5B
1485219841.95,41264,9.38,73370.3,-8.37,-41.17,-41.23,0,*5E
1485219843.16,41265,9.38,73372.0,-8.37,-41.03,-41.17,0,*5D
1485219844.43,41266,9.38,73370.0,-8.37,-41.23,-41.35,0,*5C
1485219845.69,41267,9.38,73374.3,-8.35,-41.17,-41.23,0,*5F
1485219846.95,41268,9.38,73374.3,-8.35,-41.17,-41.35,0,*57
1485219848.21,41269,9.38,73372.8,-8.35,-41.17,-41.23,0,*51
1485219849.47,41270,9.38,73372.0,-8.35,-41.17,-41.23,0,*59
1485219850.73,41271,9.38,73374.0,-8.35,-41.17,-41.35,0,*5F
1485219851.99,41272,9.38,73372.5,-8.35,-41.35,-41.41,0,*5F
1485219853.26,41273,9.38,73368.5,-8.35,-41.23,-41.41,0,*59
1485219854.52,41274,9.38,73372.8,-8.35,-41.17,-41.35,0,*5A
1485219855.78,41275,9.38,73374.8,-8.35,-41.17,-41.35,0,*5B
1485219857.01,41276,9.38,73374.8,-8.35,-41.17,-41.41,0,*5B
1485219858.28,41277,9.38,73372.0,-8.35,-41.03,-41.35,0,*5C
1485219859.52,41278,9.38,73372.0,-8.35,-41.03,-41.17,0,*53
1485219860.76,41279,9.38,73374.5,-8.35,-41.03,-41.17,0,*52
1485219862.02,41280,9.38,73370.8,-8.35,-41.17,-41.23,0,*56
1485219863.29,41281,9.38,73374.8,-8.35,-41.03,-41.23,0,*52
1485219864.58,41282,9.38,73370.8,-8.35,-41.23,-41.35,0,*54
1485219865.81,41283,9.38,73372.8,-8.33,-40.79,-40.91,0,*52
1485219867.05,41284,9.38,73368.8,-8.29,-40.97,-41.17,0,*51
1485219868.26,41285,9.38,73372.3,-8.33,-41.11,-41.11,0,*52
1485219869.47,41286,9.38,73372.8,-8.29,-41.11,-41.29,0,*51
1485219870.7,41287,9.38,73370.5,-8.29,-40.97,-41.17,0,*52
1485219871.94,41288,9.38,73374.5,-8.33,-40.97,-41.29,0,*5B
1485219873.14,41289,9.38,73368.3,-8.33,-41.11,-41.29,0,*55
1485219874.38,41290,9.38,73372.8,-8.29,-41.29,-41.35,0,*50
1485219875.59,41291,9.38,73374.5,-8.29,-41.17,-41.29,0,*51
1485219876.82,41292,9.38,73372.3,-8.33,-40.97,-41.29,0,*50
1485219878.08,41293,9.38,73374.3,-8.33,-40.79,-40.97,0,*55
1485219879.32,41294,9.38,73370.3,-8.29,-40.97,-41.17,0,*50
1485219880.56,41295,9.38,73374.5,-8.29,-40.97,-41.11,0,*57
1485219881.77,41296,9.38,73370.5,-8.33,-41.11,-41.11,0,*50
1485219882.98,41297,9.38,73368.8,-8.29,-41.11,-41.17,0,*5C
1485219884.19,41298,9.38,73374.8,-8.29,-41.11,-41.29,0,*5E
1485219885.4,41299,9.38,73370.8,-8.29,-41.29,-41.49,0,*52
1485219886.63,41300,9.38,73374.3,-8.29,-41.11,-41.35,0,*53
1485219887.84,41301,9.38,73370.5,-8.33,-41.29,-41.29,0,*5F
1485219889.07,41302,9.38,73370.8,-8.29,-41.17,-41.35,0,*57
1485219890.28,41303,9.38,73372.3,-8.33,-41.11,-41.29,0,*56
1485219891.52,41304,9.38,73372.0,-8.29,-40.97,-41.17,0,*58
1485219892.73,41305,9.38,73374.5,-8.33,-41.11,-41.17,0,*5D
1485219893.96,41306,9.38,73368.5,-8.29,-41.29,-41.35,0,*5E
1485219895.17,41307,9.38,73368.5,-8.29,-41.17,-41.17,0,*52
1485219896.38,41308,9.38,73374.0,-8.29,-41.11,-41.17,0,*5B
1485219897.62,41309,9.38,73372.5,-8.33,-40.97,-41.17,0,*5E
1485219898.85,41310,9.38,73370.0,-8.27,-41.03,-41.29,0,*52
1485219900.06,41311,9.38,73372.5,-8.33,-41.29,-41.29,0,*5E
1485219901.29,41312,9.38,73374.8,-8.29,-41.11,-41.35,0,*50
1485219902.5,41313,9.38,73370.3,-8.29,-41.17,-41.49,0,*5C
1485219903.74,41314,9.38,73370.0,-8.29,-41.17,-41.35,0,*50
1485219904.95,41315,9.38,73370.0,-8.29,-41.11,-41.17,0,*57
1485219906.16,41316,9.38,73368.3,-8.29,-41.11,-41.29,0,*59
1485219907.37,41317,9.38,73370.5,-8.29,-41.17,-41.29,0,*5E
1485219908.61,41318,9.38,73372.3,-8.29,-41.17,-41.35,0,*5C
1485219909.84,41319,9.38,73374.8,-8.29,-41.29,-41.35,0,*50
1485219911.08,41320,9.38,73370.5,-8.29,-41.11,-41.35,0,*51
1485219912.29,41321,9.38,73370.8,-8.29,-41.17,-41.49,0,*5D
1485219913.53,41322,9.38,73370.5,-8.29,-41.17,-41.35,0,*55
1485219914.74,41323,9.38,73368.3,-8.29,-41.11,-41.11,0,*54
1485219915.95,41324,9.38,73368.5,-8.29,-41.11,-41.17,0,*55
1485219917.16,41325,9.38,73374.3,-8.29,-41.17,-41.17,0,*52
1485219918.4,41326,9.38,73370.5,-8.27,-41.03,-41.11,0,*5C
1485219919.64,41327,9.38,73368.5,-8.27,-41.03,-41.11,0,*5D
1485219920.87,41328,9.38,73372.3,-8.27,-41.11,-41.11,0,*51
1485219922.11,41329,9.38,73374.3,-8.27,-40.91,-41.03,0,*5A
1485219923.32,41330,9.38,73368.3,-8.25,-41.03,-41.29,0,*52
1485219924.53,41331,9.38,73368.5,-8.25,-41.11,-41.29,0,*50
1485219925.74,41332,9.38,73370.3,-8.25,-41.11,-41.29,0,*53
1485219926.98,41333,9.38,73368.3,-8.25,-41.03,-41.23,0,*5B
1485219928.21,41334,9.38,73372.8,-8.25,-41.11,-41.23,0,*5F
1485219929.42,41335,9.38,73372.0,-8.25,-41.03,-41.11,0,*5C
1485219930.65,41336,9.38,73370.5,-8.27,-41.11,-41.29,0,*55
1485219931.92,41337,9.38,73368.8,-8.27,-41.03,-41.23,0,*5D
1485219933.18,41338,9.38,73370.3,-8.27,-41.03,-41.23,0,*52
1485219934.39,41339,9.38,73370.8,-8.25,-41.11,-41.29,0,*58
1485219935.63,41340,9.38,73370.3,-8.25,-41.03,-41.23,0,*5F
1485219936.84,41341,9.38,73368.8,-8.25,-41.11,-41.11,0,*5C
1485219938.05,41342,9.38,73372.5,-8.25,-41.03,-41.03,0,*5F
1485219939.29,41343,9.38,73370.5,-8.27,-41.03,-41.11,0,*5F
1485219940.58,41344,9.38,73370.8,-8.27,-41.23,-41.23,0,*5B
1485219941.84,41345,9.38,73374.0,-8.25,-41.23,-41.23,0,*58
1485219943.1,41346,9.38,73372.0,-8.27,-41.11,-41.23,0,*58
1485219944.31,41347,9.38,73370.8,-8.25,-41.11,-41.29,0,*51
1485219945.54,41348,9.38,73370.5,-8.25,-41.11,-41.23,0,*54
1485219946.78,41349,9.38,73370.8,-8.25,-41.11,-41.23,0,*55
1485219948.01,41350,9.38,73370.3,-8.27,-41.11,-41.11,0,*5E
1485219949.25,41351,9.38,73368.3,-8.25,-41.23,-41.29,0,*57
1485219950.48,41352,9.38,73374.5,-8.25,-41.23,-41.29,0,*54
1485219951.72,41353,9.38,73374.3,-8.25,-41.23,-41.29,0,*55
1485219952.95,41354,9.38,73370.8,-8.27,-41.11,-41.29,0,*51
1485219954.18,41355,9.38,73370.3,-8.25,-41.11,-41.23,0,*58
1485219955.4,41356,9.38,73370.8,-8.25,-40.91,-41.03,0,*50
1485219956.64,41357,9.38,73368.0,-8.27,-41.03,-41.11,0,*5A
1485219957.87,41358,9.38,73370.5,-8.25,-41.11,-41.23,0,*55
1485219959.08,41359,9.38,73368.0,-8.25,-41.11,-41.11,0,*55
1485219960.29,41360,9.38,73372.8,-8.25,-41.03,-41.29,0,*57
1485219961.53,41361,9.38,73368.3,-8.25,-41.23,-41.29,0,*54
1485219962.77,41362,9.38,73374.0,-8.25,-41.11,-41.23,0,*5C
1485219964.01,41363,9.38,73372.3,-8.25,-41.03,-41.23,0,*5E
1485219965.25,41364,9.38,73374.3,-8.25,-41.03,-41.23,0,*59
1485219966.48,41365,9.38,73374.3,-8.25,-41.11,-41.23,0,*5B
1485219967.71,41366,9.38,73370.3,-8.25,-41.11,-41.23,0,*58
1485219968.97,41367,9.38,73372.3,-8.23,-41.17,-41.35,0,*5E
1485219970.19,41368,9.38,73368.3,-8.21,-41.03,-41.17,0,*56
1485219971.43,41369,9.38,73368.3,-8.23,-41.03,-41.17,0,*55
1485219972.69,41370,9.38,73368.8,-8.23,-41.17,-41.23,0,*5F
1485219973.95,41371,9.38,73368.8,-8.23,-41.17,-41.23,0,*5E
1485219975.21,41372,9.38,73372.0,-8.23,-41.17,-41.23,0,*5D
1485219976.47,41373,9.38,73370.8,-8.23,-41.17,-41.35,0,*5B
1485219977.71,41374,9.38,73372.0,-8.23,-41.03,-41.17,0,*59
1485219978.97,41375,9.38,73372.0,-8.23,-41.17,-41.35,0,*5D
1485219980.24,41376,9.38,73372.3,-8.23,-41.23,-41.41,0,*5A
1485219981.48,41377,9.38,73370.8,-8.23,-41.03,-41.17,0,*5A
1485219982.74,41378,9.38,73370.5,-8.23,-41.17,-41.35,0,*50
1485219983.95,41379,9.38,73372.0,-8.21,-41.03,-41.17,0,*56
1485219985.19,41380,9.38,73370.5,-8.23,-41.03,-41.17,0,*52
1485219986.46,41381,9.38,73370.0,-8.23,-40.97,-41.03,0,*5A
1485219987.72,41382,9.38,73368.3,-8.23,-40.97,-41.17,0,*5C
1485219988.96,41383,9.38,73368.0,-8.21,-41.03,-41.23,0,*54
1485219990.18,41384,9.38,73368.3,-8.21,-41.03,-41.03,0,*51
1485219991.42,41385,9.38,73368.5,-8.21,-41.17,-41.23,0,*57
1485219992.64,41386,9.38,73370.0,-8.21,-41.03,-41.17,0,*56
1485219993.85,41387,9.38,73366.8,-8.21,-41.03,-41.17,0,*57
1485219995.09,41388,9.38,73372.0,-8.21,-41.17,-41.35,0,*5D
1485219996.35,41389,9.38,73368.8,-8.23,-41.17,-41.35,0,*5E
1485219997.6,41390,9.38,73368.8,-8.21,-41.03,-41.35,0,*51
1485219998.83,41391,9.38,73370.0,-8.21,-41.17,-41.35,0,*55
1485220000.1,41392,9.38,73368.3,-8.21,-40.97,-41.35,0,*5F
1485220001.36,41393,9.38,73372.8,-8.23,-41.03,-41.23,0,*57
1485220002.6,41394,9.38,73370.3,-8.21,-41.03,-41.35,0,*55
1485220003.85,41395,9.38,73372.0,-8.21,-41.03,-41.23,0,*53
1485220005.09,41396,9.38,73370.5,-8.21,-41.17,-41.23,0,*55
1485220006.32,41397,9.38,73370.5,-8.19,-41.11,-41.17,0,*5E
1485220007.53,41398,9.38,73370.8,-8.21,-41.17,-41.41,0,*5F
1485220008.77,41399,9.38,73366.5,-8.21,-41.17,-41.35,0,*5D
1485220009.98,41400,9.38,73368.8,-8.21,-41.03,-41.17,0,*5F
1485220011.22,41401,9.38,73368.8,-8.21,-40.97,-41.03,0,*57
1485220012.47,41402,9.38,73366.5,-8.21,-40.97,-41.03,0,*54
1485220013.73,41403,9.38,73370.3,-8.21,-40.97,-41.23,0,*57
1485220014.97,41404,9.38,73368.8,-8.21,-41.03,-41.23,0,*5C
1485220016.21,41405,9.38,73370.8,-8.21,-41.17,-41.23,0,*58
1485220017.47,41406,9.38,73372.0,-8.19,-41.17,-41.35,0,*57
1485220018.73,41407,9.38,73368.8,-8.19,-40.97,-41.11,0,*59
1485220020.02,41408,9.38,73368.5,-8.19,-40.97,-40.97,0,*59
1485220021.28,41409,9.38,73368.3,-8.19,-40.97,-41.11,0,*57
1485220022.52,41410,9.38,73370.5,-8.19,-40.91,-41.11,0,*59
1485220023.73,41411,9.38,73368.5,-8.17,-41.17,-41.29,0,*52
1485220024.95,41412,9.38,73368.8,-8.19,-41.17,-41.49,0,*59
1485220026.18,41413,9.38,73368.8,-8.19,-41.11,-41.29,0,*58
1485220027.42,41414,9.38,73370.8,-8.19,-41.11,-41.29,0,*5F
1485220028.67,41415,9.38,73370.5,-8.19,-40.97,-41.17,0,*5C
1485220029.91,41416,9.38,73368.0,-8.19,-41.11,-41.17,0,*50
1485220031.17,41417,9.38,73370.8,-8.19,-40.97,-41.17,0,*5E
1485220032.43,41418,9.38,73368.5,-8.17,-40.79,-40.97,0,*56
1485220033.66,41419,9.38,73368.5,-8.17,-40.97,-41.11,0,*58
1485220034.9,41420,9.38,73370.0,-8.17,-40.97,-41.17,0,*54
1485220036.13,41421,9.38,73372.0,-8.17,-40.97,-41.17,0,*55
1485220037.39,41422,9.38,73368.0,-8.19,-40.97,-41.17,0,*58
1485220038.62,41423,9.38,73370.3,-8.19,-41.11,-41.17,0,*56
1485220039.83,41424,9.38,73366.3,-8.17,-41.11,-41.29,0,*52
1485220041.09,41425,9.38,73370.5,-8.19,-40.97,-40.91,0,*50
1485220042.32,41426,9.38,73368.5,-8.17,-40.97,-41.17,0,*52
1485220043.56,41427,9.38,73370.3,-8.17,-41.17,-41.35,0,*5A
1485220044.77,41428,9.38,73368.8,-8.17,-41.17,-41.29,0,*58
1485220046.0,41429,9.38,73368.8,-8.17,-40.97,-41.11,0,*5B
1485220047.26,41430,9.38,73366.5,-8.19,-41.11,-41.35,0,*54
1485220048.46,41431,9.38,73370.8,-8.17,-41.29,-41.49,0,*5B
1485220049.7,41432,9.38,73372.5,-8.19,-41.17,-41.29,0,*5D
1485220050.9,41433,9.38,73372.3,-8.17,-41.17,-41.29,0,*52
1485220052.16,41434,9.38,73370.8,-8.19,-40.97,-41.11,0,*59
1485220053.37,41435,9.38,73370.5,-8.17,-41.11,-41.17,0,*5F
1485220054.58,41436,9.38,73370.8,-8.17,-41.11,-41.29,0,*51
1485220055.81,41437,9.38,73370.0,-8.17,-41.17,-41.35,0,*5B
1485220057.02,41438,9.38,73368.3,-8.17,-41.17,-41.29,0,*59
1485220058.26,41439,9.38,73368.0,-8.17,-40.97,-41.17,0,*5C
1485220059.46,41440,9.38,73370.5,-8.17,-41.11,-41.17,0,*5D
1485220060.7,41441,9.38,73368.5,-8.17,-40.97,-41.17,0,*53
1485220061.9,41442,9.38,73368.5,-8.17,-41.17,-41.29,0,*54
1485220063.14,41443,9.38,73370.5,-8.17,-41.17,-41.35,0,*58
1485220064.35,41444,9.38,73368.3,-8.17,-41.17,-41.29,0,*52
1485220065.55,41445,9.38,73368.5,-8.17,-41.11,-41.29,0,*55
1485220066.76,41446,9.38,73372.8,-8.17,-41.11,-41.29,0,*56
1485220068.03,41447,9.38,73370.3,-8.15,-41.03,-41.23,0,*5C
1485220069.27,41448,9.38,73370.0,-8.17,-40.97,-41.29,0,*57
1485220070.51,41449,9.38,73370.0,-8.15,-41.03,-41.29,0,*58
1485220071.78,41450,9.38,73370.0,-8.15,-41.23,-41.41,0,*5C
1485220073.02,41451,9.38,73372.0,-8.15,-41.11,-41.41,0,*5C
1485220074.26,41452,9.38,73368.0,-8.15,-41.03,-41.11,0,*59
1485220075.53,41453,9.38,73374.5,-8.15,-41.03,-41.23,0,*59
1485220076.81,41454,9.38,73372.0,-8.15,-41.03,-41.23,0,*5E
1485220078.05,41455,9.38,73368.8,-8.15,-40.91,-41.11,0,*54
1485220079.3,41456,9.38,73370.3,-8.15,-41.03,-41.11,0,*5D
1485220080.54,41457,9.38,73370.5,-8.15,-40.91,-41.11,0,*56
1485220081.79,41458,9.38,73368.8,-8.15,-41.03,-41.11,0,*53
1485220083.04,41459,9.38,73370.5,-8.15,-40.91,-41.03,0,*5B
1485220084.28,41460,9.38,73370.3,-8.13,-40.85,-41.03,0,*52
1485220085.52,41461,9.38,73370.0,-8.15,-40.91,-41.11,0,*53
1485220086.77,41462,9.38,73372.0,-8.15,-40.91,-40.91,0,*59
1485220088.02,41463,9.38,73368.5,-8.15,-41.03,-41.11,0,*5B
1485220089.27,41464,9.38,73370.0,-8.15,-40.91,-41.03,0,*55
1485220090.49,41465,9.38,73368.8,-8.13,-41.03,-41.03,0,*58
1485220091.7,41466,9.38,73366.5,-8.13,-41.03,-41.29,0,*53
1485220092.92,41467,9.38,73372.5,-8.13,-40.91,-41.11,0,*53
1485220094.16,41468,9.38,73368.8,-8.13,-41.03,-41.23,0,*57
1485220095.43,41469,9.38,73370.5,-8.15,-40.91,-41.23,0,*5A
1485220096.65,41470,9.38,73364.8,-8.13,-40.91,-41.03,0,*56
1485220097.86,41471,9.38,73366.5,-8.13,-41.03,-41.29,0,*55
1485220099.07,41472,9.38,73370.0,-8.13,-41.11,-41.29,0,*55
1485220100.31,41473,9.38,73372.3,-8.13,-41.11,-41.23,0,*5E
1485220101.55,41474,9.38,73370.0,-8.13,-41.23,-41.29,0,*52
1485220102.78,41475,9.38,73370.5,-8.13,-41.23,-41.29,0,*53